Tracking 18980 objects as of 21-Feb-2018
HD Live streaming from Space Station
objects crossing your sky now

COSMOS 1556 (GLONASS)

Track COSMOS 1556 (GLONASS) now!
COSMOS 1556 (GLONASS) is classified as:


NORAD ID: 14979
Int'l Code: 1984-047C
Perigee: 19,129.5 km
Apogee: 19,174.7 km
Inclination: 66.0 °
Period: 676.3 minutes
Semi major axis: 25523 km
RCS: 0.4372 m2 (medium)
Launch date: May 19, 1984
Source: Commonwealth of Independent States (former USSR) (CIS)
Launch site: TYURATAM MISSILE AND SPACE COMPLEX (TTMTR)
SV:
aabbcc
Your satellite tracking list
Your tracking list is empty




NASA's NSSDC Master Catalog

Two Line Element Set (TLE):
1 14979U 84047C   18051.31516098 +.00000019 +00000-0 +00000-0 0  9991
2 14979 065.9806 068.7739 0008862 206.0913 328.1654 02.12913182262391
Source of the keplerian elements: AFSPC